Regional Weather Roundup
Issued by NWS

Home | Current Version | Previous Version | Graphics & Text | Print | Product List | Glossary On
Versions: 1 2 3 4 5 6 7 8 9 10 11 12 13 14 15 16 17 18 19 20 21 22 23 24 25 26 27 28 29 30 31 32 33 34 35 36 37 38 39 40 41 42 43 44 45 46 47 48 49 50
000
ASUS45 KCYS 250410
RWRWY

WYOMING REGIONAL WEATHER ROUNDUP
NATIONAL WEATHER SERVICE CHEYENNE WY
1000 PM MDT TUE APR 24 2018

NOTE:  "FAIR" INDICATES FEW OR NO CLOUDS BELOW 12,000 FEET
WITH NO SIGNIFICANT WEATHER AND/OR OBSTRUCTIONS TO VISIBILITY.

WYZ001-250500-
YELLOWSTONE NATIONAL PARK

CITY           SKY/WX    TMP DP  RH WIND       PRES   REMARKS
LK YELLOWSTONE   N/A     25  17  72 CALM      30.43R
W YELLOWSTONE  NOT AVBL

$$
WYZ002>013-054>058-071-098>099-250500-
NORTHERN WYOMING

CITY           SKY/WX    TMP DP  RH WIND       PRES   REMARKS
JACKSON        FAIR      34  21  59 CALM      30.38R
CODY           FAIR      38  23  55 SE9       30.37F WCI  31
GREYBULL       FAIR      43  29  57 S6        30.37S
WORLAND        FAIR      37  28  70 S10       30.39S WCI  30
SHERIDAN       FAIR      38  27  64 S5        30.35F WCI  34
BUFFALO        FAIR      37  23  56 S6        30.38F WCI  32
GILLETTE       FAIR      30  25  81 S6        30.39R WCI  24
HULETT         FAIR      32  30  93 S8        30.41F WCI  25
NEWCASTLE      FAIR      34  23  64 NE6       30.42S WCI  29

$$
WYZ014>020-022>026-101>103-250500-
CENTRAL WYOMING

CITY           SKY/WX    TMP DP  RH WIND       PRES   REMARKS
BIG PINEY      FAIR      33  15  47 NW5       30.41R WCI  29
PINEDALE       FAIR      32  25  74 E9        30.42R WCI  24
DUBOIS         FAIR      32  21  64 CALM      30.41R
LANDER         FAIR      36  22  56 SW5       30.40R WCI  32
RIVERTON       FAIR      38  21  50 E6        30.41R WCI  33
CASPER         FAIR      26  22  84 CALM      30.42S
DOUGLAS        FAIR      29  24  82 CALM      30.43R

$$
WYZ021-027>030-104>119-250500-
SOUTHERN WYOMING

CITY           SKY/WX    TMP DP  RH WIND       PRES   REMARKS
EVANSTON       FAIR      40  20  44 E8        30.39R WCI  34
KEMMERER       FAIR      36  19  51 E9        30.41R WCI  29
FORT BRIDGER   FAIR      35  20  53 SE10      30.43R WCI  28
ROCK SPRINGS   FAIR      34  17  50 E9        30.43R WCI  27
DIXON          FAIR      34  19  54 NE18      30.42R WCI  23
RAWLINS        FAIR      25  16  68 NE9       30.43R WCI  15
SARATOGA       FAIR      27  18  69 W5        30.43R WCI  21
LARAMIE        CLOUDY    31  21  66 N6        30.40R WCI  25
CHEYENNE       FAIR      32  26  78 N8        30.42R WCI  25
TORRINGTON     CLOUDY    38  32  79 E3        30.42R
PINE BLUFFS    MOCLDY    34  28  80 MISG      30.43R

$$



USA.gov is the U.S. government's official web portal to all federal, state and local government web resources and services.